Location: ?????????
(55.6553°N, 38.9075°E)
Time: 23:38:45
(UTC+00:00)

NOSS 2-2 (C) - Pass Details

Date: 18 October 2019
Orbit: 490 x 1718 km, 63.3° (Epoch: 12 November)

Event Time Altitude Azimuth Distance (km) Brightness Sun altitude
Exits shadow 01:54:21 29° 205° (SSW) 989 4.3 -18.4°
Maximum altitude 01:56:08 62° 134° (SE) 633 3.7 -18.1°
Drops below altitude 10° 02:00:36 10° 55° (NE) 2,078 7.2 -17.5°
Sets 02:03:14 0° 52° (NE) 3,164 8.3 -17.1°
